Weather History for Hawthorne, CA

Change the Weather History Date:

Wednesday, March 28, 2012

  Actual Average Record
Temperature  
Mean Temperature 57 °F -  
Max Temperature 64 °F 65 °F 86 °F (2004)
Min Temperature 50 °F 52 °F 42 °F (1945)
Degree Days  
Heating Degree Days 8    
Growing Degree Days 7 (Base 50)    
Moisture  
Dew Point 49 °F    
Average Humidity 77    
Maximum Humidity 90    
Minimum Humidity 54    
Precipitation  
Precipitation 0.00 in - - ()
Sea Level Pressure  
Sea Level Pressure 30.07 in    
Wind  
Wind Speed 4 mph (West)    
Max Wind Speed 13 mph    
Max Gust Speed 16 mph    
Visibility 10 miles    
Events      
Averages and records for this station are not official NWS values.
T = Trace of Precipitation, MM = Missing Value Source: NWS Daily Summary

Daily Weather History Graph

Daily Weather History Graph

Search for Another Location

Airport:

Trip Planner

Search our weather history database for the weather conditions in past years. The results will help you decide how hot, cold, wet, or windy it might be!

Date:

Astronomy

Mar. 28, 2012 Rise Set
Actual Time 6:45 AM PDT 7:11 PM PDT
Civil Twilight 6:20 AM PDT 7:36 PM PDT
Nautical Twilight 5:50 AM PDT 8:06 PM PDT
Astronomical Twilight 5:21 AM PDT 8:35 PM PDT
Moon 10:20 AM PDT (3/28) 12:03 AM PDT (3/28)
Length of Visible Light 13h 16m
Length of Day
12h 26m
Waxing Crescent, 31% of the Moon is Illuminated
Mar 28
Waxing Crescent
Mar 30
First Quarter
Apr 6
Full
Apr 13
Last Quarter
Apr 21
New

Hourly Weather History & Observations

Time (PDT) Temp. Dew Point Humidity Pressure Visibility Wind Dir Wind Speed Gust Speed Precip Events Conditions
12:53 AM 52.0 °F 46.0 °F 80% 30.11 in 10.0 mi Calm Calm - N/A   Clear
1:53 AM 51.1 °F 46.0 °F 83% 30.09 in 10.0 mi Calm Calm - N/A   Clear
2:53 AM 51.1 °F 45.0 °F 80% 30.08 in 10.0 mi Calm Calm - N/A   Clear
3:53 AM 50.0 °F 45.0 °F 83% 30.07 in 10.0 mi Calm Calm - N/A   Clear
4:53 AM 50.0 °F 45.0 °F 83% 30.07 in 10.0 mi Calm Calm - N/A   Clear
5:53 AM 51.1 °F 44.1 °F 77% 30.08 in 10.0 mi Calm Calm - N/A   Clear
6:53 AM 51.1 °F 44.1 °F 77% 30.10 in 10.0 mi Calm Calm - N/A   Clear
7:53 AM 52.0 °F 44.1 °F 74% 30.12 in 10.0 mi ESE 4.6 mph - N/A   Clear
8:53 AM 55.9 °F 43.0 °F 62% 30.12 in 10.0 mi Calm Calm - N/A   Clear
9:53 AM 57.0 °F 44.1 °F 62% 30.13 in 10.0 mi Calm Calm - N/A   Clear
10:53 AM 61.0 °F 44.1 °F 54% 30.11 in 10.0 mi Calm Calm - N/A   Clear
11:53 AM 63.0 °F 46.0 °F 54% 30.10 in 10.0 mi SW 6.9 mph - N/A   Clear
12:53 PM 63.0 °F 46.9 °F 56% 30.09 in 10.0 mi West 11.5 mph - N/A   Clear
1:53 PM 63.0 °F 48.9 °F 60% 30.08 in 10.0 mi West 12.7 mph - N/A   Clear
2:53 PM 64.0 °F 50.0 °F 60% 30.06 in 10.0 mi West 8.1 mph - N/A   Clear
3:53 PM 62.1 °F 51.1 °F 67% 30.05 in 10.0 mi West 9.2 mph - N/A   Clear
4:53 PM 61.0 °F 52.0 °F 72% 30.04 in 10.0 mi West 10.4 mph - N/A   Clear
5:53 PM 62.1 °F 51.1 °F 67% 30.04 in 10.0 mi West 10.4 mph 16.1 mph N/A   Clear
6:50 PM 59.0 °F 53.6 °F 82% 30.04 in 10.0 mi West 8.1 mph - N/A   Scattered Clouds
6:53 PM 59.0 °F 53.1 °F 81% 30.04 in 10.0 mi West 9.2 mph - N/A   Mostly Cloudy
7:00 PM 57.2 °F 53.6 °F 88% 30.04 in 10.0 mi West 6.9 mph - N/A   Scattered Clouds
7:09 PM 57.2 °F 51.8 °F 82% 30.04 in 10.0 mi West 8.1 mph - N/A   Mostly Cloudy
7:53 PM 57.9 °F 53.1 °F 84% 30.04 in 5.0 mi WSW 8.1 mph - N/A   Haze
8:00 PM 57.2 °F 53.6 °F 88% 30.05 in 10.0 mi West 8.1 mph - N/A   Overcast
8:31 PM 57.2 °F 51.8 °F 82% 30.05 in 10.0 mi West 8.1 mph - N/A   Overcast
8:53 PM 55.9 °F 52.0 °F 87% 30.06 in 10.0 mi West 6.9 mph - N/A   Overcast
9:07 PM 57.2 °F 51.8 °F 82% 30.07 in 10.0 mi West 5.8 mph - N/A   Overcast
9:53 PM 57.0 °F 52.0 °F 83% 30.08 in 10.0 mi West 5.8 mph - N/A   Scattered Clouds
10:29 PM 55.4 °F 51.8 °F 88% 30.08 in 10.0 mi WNW 5.8 mph - N/A   Mostly Cloudy
10:53 PM 55.9 °F 52.0 °F 87% 30.08 in 10.0 mi West 10.4 mph - N/A   Overcast
11:05 PM 55.4 °F 51.8 °F 88% 30.07 in 10.0 mi West 9.2 mph - N/A   Overcast
11:21 PM 55.4 °F 51.8 °F 88% 30.07 in 10.0 mi West 8.1 mph - N/A   Overcast
11:53 PM 54.0 °F 51.1 °F 90% 30.07 in 6.0 mi West 8.1 mph - N/A   Overcast